Погода в Марфино

Россия / Астраханская область     46°24′13″N   48°43′10″E
темп.,
°C
ветер,
м/с
пор.,
м/с
влажн.,
%
обл.,
%
осадки,
мм/ч
давл.,
гПа
погр.,
м
12 мая, ср
ср1201:00+12всв11630 0.0 101810
04:00+12всв33612 0.0 101735
07:00+15всв246268 0.0 1017164
10:00+20всв345116 0.0 1017933
13:00+25всв464128 0.0 10161957
16:00+24юв77440 0.0 10161172
19:00+20ююв56450 0.0 1016623
22:00+16юв35620 0.0 1016120
13 мая, чт
чт1301:00+16юв34670 0.0 101662
04:00+15в00710 0.1 101511
07:00+18в12630 0.0 1016148
10:00+25юв46445 0.0 1016923
13:00+29ююв710320 0.0 10161295
16:00+27юв79340 0.1 1017888
19:00+24юв57420 0.0 1017423
22:00+21вюв47460 0.0 101796
14 мая, пт
пт1401:00+20в46492 0.0 101779
04:00+21юв613440 0.0 1017290
07:00+22юв614435 0.0 1018380
10:00+28юв811223 0.0 1019740
13:00+30юв8101764 0.0 10191087
16:00+30юв81015100 0.0 10191227
19:00+25юв5123099 0.0 1019426
22:00+22вюв4133310 0.0 1018263
15 мая, сб
сб1501:00+21вюв512423 0.0 1017227
04:00+20вюв513545 0.0 1017220
07:00+23юв614435 0.0 1018447
10:00+29юв810265 0.0 10181105
13:00+30юв87220 0.0 10181407
16:00+30юв66220 0.0 10171225
19:00+27юв46270 0.0 1017414
22:00+22вюв46370 0.0 101788
16 мая, вс
вс1601:00+22в45350 0.0 101658
04:00+20вюв410601 0.0 1015157
07:00+23вюв510495 0.0 1015240
10:00+30юв810230 0.0 10161107
13:00+31вюв910170 0.0 10161499
16:00+30вюв89140 0.0 10151505
19:00+28в711170 0.0 1013718
22:00+24в514240 0.0 1013299